[[{"header":{"parameterUnit":"m.s-1","parameterCategory":1,"la1":30.2991,"la2":30.254,"lo1":-89.0895,"lo2":-89.0444,"dy":0.0017,"dx":0.0017,"nx":28,"ny":28,"refTime":"2024-04-21T03:00:00:Z","depth":0,"parameterNumber":2,"parameterNumberName":"U-component_of_WINDS"},"data":[0,0,0,0,0,0,0,0,0,0,0,0,0,0,0,0,0,0,0,0,0,0,0,0,0,0,0,0,0,0,0,0,0,0,0,0,0,0,0,0,0,0,0,0,0,0,0,0,0,0,0,0,0,0,0,0,0,0,-0.4038,-0.4036,0,-0.3915,-0.3914,-0.3912,-0.3898,-0.3899,-0.3901,-0.3902,-0.3762,-0.3757,-0.3752,0,0,0,0,0,0,0,0,0,0,0,0,0,-0.4245,-0.4241,-0.4038,-0.4036,-0.4035,-0.3915,-0.3914,-0.3912,-0.3898,-0.3899,-0.3901,-0.3902,-0.3763,-0.3758,-0.3752,0,0,0,0,0,0,0,0,0,0,0,0,0,-0.4142,-0.424,-0.4038,-0.4014,-0.401,-0.3916,-0.3914,-0.3911,-0.3898,-0.3899,-0.3901,-0.3903,-0.3765,-0.3758,-0.3751,-0.3668,0,0,-0.3728,-0.3725,0,0,0,0,0,0,0,0,-0.4148,-0.4134,-0.4019,-0.4015,-0.4011,-0.3924,-0.3935,-0.3829,-0.3897,-0.394,-0.3902,-0.3904,-0.3813,-0.3802,-0.3775,-0.3661,-0.3655,-0.3728,-0.3723,-0.372,-0.3718,0,0,0,0,0,0,0,-0.4155,-0.4139,-0.3989,-0.4017,-0.4012,-0.4004,-0.3991,-0.3915,-0.3867,-0.3936,-0.3935,-0.3922,-0.3811,-0.3782,-0.3771,-0.3653,-0.3728,-0.3721,-0.3717,-0.3714,-0.3462,-0.346,0,0,0,0,0,0,-0.4168,-0.4145,-0.3993,-0.3985,-0.4086,-0.3999,-0.3985,-0.395,-0.3868,-0.3858,-0.392,-0.3921,-0.3793,-0.378,-0.3766,-0.3662,-0.372,-0.3713,-0.3709,-0.3464,-0.3462,-0.3459,0,0,0,0,0,0,-0.4173,-0.4155,-0.3998,-0.4065,-0.4044,-0.3993,-0.3954,-0.3946,-0.3917,-0.3856,-0.3846,-0.3899,-0.3794,-0.3776,-0.3693,-0.3657,-0.371,-0.3703,-0.3467,-0.3463,-0.346,-0.3453,0,0,0,0,0,0,-0.4179,-0.4157,-0.4128,-0.4065,-0.4041,-0.3931,-0.3952,-0.3943,-0.3906,-0.3906,-0.3834,-0.3823,-0.3794,-0.3704,-0.3685,-0.3647,-0.3698,-0.347,-0.3465,-0.3461,-0.3456,-0.345,-0.3444,0,0,0,0,0,-0.4186,-0.4128,-0.4127,-0.4108,-0.4005,-0.3929,-0.3915,-0.3887,-0.3903,-0.3871,-0.3832,-0.3826,-0.3664,-0.3695,-0.3675,-0.3634,-0.3472,-0.3467,-0.3462,-0.3459,-0.3451,-0.3445,0,0,0,0,0,0,-0.4184,-0.4119,-0.4117,-0.4038,-0.3989,-0.3927,-0.3886,-0.388,-0.3822,-0.3824,-0.3787,-0.3771,-0.3688,-0.3652,-0.3689,-0.3547,-0.3569,-0.3559,-0.3574,-0.3566,-0.356,-0.3569,-0.3691,0,0,0,0,0,-0.4175,-0.4124,-0.4068,-0.4003,-0.3979,-0.3937,-0.3903,-0.3886,-0.3832,-0.381,-0.3765,-0.3709,-0.3645,-0.3604,-0.3542,-0.3452,-0.3433,-0.3413,-0.3407,-0.3402,-0.3394,-0.334,-0.333,-0.3442,-0.3442,-0.3442,0,0,-0.4154,-0.4112,-0.4081,-0.4001,-0.3962,-0.3905,-0.392,-0.3859,-0.3814,-0.3799,-0.3719,-0.3683,-0.3618,-0.353,-0.3489,-0.3498,-0.3359,-0.3396,-0.3393,-0.3386,-0.3334,-0.3323,-0.3314,-0.3439,-0.3439,-0.344,0,0,-0.4087,-0.4052,-0.3993,-0.3954,-0.3896,-0.3869,-0.3855,-0.3793,-0.377,-0.369,-0.3677,-0.3621,-0.3513,-0.3467,-0.3429,-0.3344,-0.3335,-0.3325,-0.3292,-0.3241,-0.3232,-0.3224,-0.3191,-0.318,-0.3317,-0.3317,-0.3317,0,-0.4066,-0.3985,-0.3962,-0.3903,-0.3866,-0.3855,-0.3792,-0.3754,-0.3676,-0.3649,-0.3662,-0.3526,-0.3481,-0.3381,-0.3361,-0.3331,-0.331,-0.3332,-0.3236,-0.3228,-0.3219,-0.3187,-0.3175,-0.3316,-0.3316,-0.3316,-0.3316,0,-0.3962,-0.3905,-0.3864,-0.3795,-0.3753,-0.3692,-0.3656,-0.3616,-0.3602,-0.3572,-0.3487,-0.3434,-0.3361,-0.3336,-0.332,-0.3232,-0.324,-0.3245,-0.3265,-0.3208,-0.3177,-0.3165,-0.3314,-0.3315,-0.3315,-0.3315,0,0,-0.3887,-0.3809,-0.3793,-0.3761,-0.3697,-0.3649,-0.3586,-0.3519,-0.3484,-0.343,-0.3373,-0.3283,-0.3287,-0.3244,-0.3223,-0.3178,-0.3111,-0.3188,-0.3185,-0.3173,-0.3007,-0.3003,-0.2989,-0.3106,-0.3103,-0.3101,-0.3012,0,-0.3811,-0.3704,-0.3681,-0.3586,-0.3531,-0.352,-0.3464,-0.3415,-0.3385,-0.333,-0.3294,-0.323,-0.3241,-0.3215,-0.3171,-0.3129,-0.3077,-0.3135,-0.3047,-0.3044,-0.3062,-0.2973,-0.2968,-0.2887,-0.3,-0.2998,-0.2996,0,-0.3707,-0.3657,-0.3557,-0.3499,-0.3475,-0.3426,-0.3362,-0.3312,-0.3254,-0.3235,-0.3188,-0.3172,-0.31,-0.3126,-0.3024,-0.3065,-0.3027,-0.3001,-0.2997,-0.2985,-0.3015,-0.2956,-0.286,-0.2847,-0.2978,-0.2979,-0.298,0,-0.366,-0.3567,-0.3495,-0.3468,-0.3399,-0.3364,-0.3333,-0.3279,-0.3239,-0.3181,-0.3155,-0.3088,-0.305,-0.2996,-0.296,-0.2983,-0.286,-0.2884,-0.2838,-0.2838,-0.281,-0.2812,-0.2704,-0.279,-0.2791,-0.2791,-0.2791,0,-0.3576,-0.3514,-0.3473,-0.3428,-0.3358,-0.3331,-0.3261,-0.3229,-0.318,-0.3125,-0.311,-0.3058,-0.3015,-0.2956,-0.2927,-0.2845,-0.2828,-0.2807,-0.2799,-0.2807,-0.2809,-0.278,-0.2783,-0.2788,-0.2788,-0.2789,-0.2789,0,-0.351,-0.3481,-0.3401,-0.3344,-0.3328,-0.3278,-0.3226,-0.318,-0.3151,-0.3081,-0.3063,-0.3014,-0.2943,-0.2903,-0.2812,-0.2792,-0.27,-0.2697,-0.2721,-0.2717,-0.2673,-0.2676,-0.2539,-0.2518,-0.2622,-0.2621,-0.262,0,-0.3457,-0.341,-0.3349,-0.3314,-0.3284,-0.3227,-0.3188,-0.3158,-0.3117,-0.3049,-0.301,-0.2939,-0.2881,-0.2767,-0.272,-0.265,-0.2643,-0.26,-0.2631,-0.264,-0.2638,-0.2641,-0.2634,-0.2593,-0.2592,-0.2591,-0.2591,0,-0.3365,-0.3353,-0.33,-0.3242,-0.3197,-0.3148,-0.3099,-0.307,-0.3031,-0.2985,-0.2916,-0.2871,-0.2781,-0.2709,-0.2635,-0.2597,-0.2585,-0.2582,-0.2567,-0.2572,-0.2587,-0.2576,-0.2703,-0.2584,-0.2585,-0.2585,-0.2585,-0.2586,-0.3301,-0.3259,-0.321,-0.3151,-0.3112,-0.3067,-0.3021,-0.2987,-0.293,-0.2858,-0.2842,-0.2768,-0.2709,-0.261,-0.257,-0.2507,-0.2514,-0.2493,-0.2487,-0.2482,-0.2479,-0.2601,-0.2494,-0.2494,-0.2494,-0.2494,-0.2494,0,-0.3206,-0.3175,-0.3121,-0.3056,-0.3008,-0.3008,-0.2954,-0.2912,-0.2849,-0.2798,-0.2742,-0.266,-0.259,-0.2539,-0.2467,-0.2426,-0.2419,-0.2408,-0.2408,-0.2399,-0.2478,-0.2497,-0.2415,-0.2415,-0.2415,-0.2415,-0.2415,-0.2415,-0.315,-0.3078,-0.306,-0.2967,-0.2934,-0.2865,-0.2834,-0.279,-0.275,-0.2661,-0.2605,-0.2574,-0.2521,-0.2445,-0.2379,-0.2366,-0.2338,-0.2327,-0.2312,-0.2386,-0.2394,-0.2402,-0.242,-0.2322,-0.2322,-0.2238,-0.2237,-0.2236]},{"header":{"parameterUnit":"m.s-1","parameterCategory":1,"la1":30.2991,"la2":30.254,"lo1":-89.0895,"lo2":-89.0444,"dy":0.0017,"dx":0.0017,"nx":28,"ny":28,"refTime":"2024-04-21T03:00:00:Z","depth":0,"parameterNumber":3,"parameterNumberName":"V-component_of_WINDS"},"data":[0,0,0,0,0,0,0,0,0,0,0,0,0,0,0,0,0,0,0,0,0,0,0,0,0,0,0,0,0,0,0,0,0,0,0,0,0,0,0,0,0,0,0,0,0,0,0,0,0,0,0,0,0,0,0,0,0,0,-0.9106,-0.9105,0,-0.8978,-0.8977,-0.8975,-0.9097,-0.9102,-0.9107,-0.9112,-0.8969,-0.8961,-0.8953,0,0,0,0,0,0,0,0,0,0,0,0,0,-0.9446,-0.9439,-0.9106,-0.9104,-0.9103,-0.8978,-0.8976,-0.8975,-0.9096,-0.9102,-0.9108,-0.9114,-0.8972,-0.8962,-0.8952,0,0,0,0,0,0,0,0,0,0,0,0,0,-0.9306,-0.9437,-0.9106,-0.9149,-0.9151,-0.8979,-0.8976,-0.8974,-0.9095,-0.9102,-0.911,-0.9117,-0.8975,-0.8963,-0.8951,-0.8726,0,0,-0.8912,-0.8907,0,0,0,0,0,0,0,0,-0.9313,-0.9293,-0.9144,-0.9146,-0.9148,-0.9061,-0.9044,-0.8891,-0.9093,-0.9116,-0.9112,-0.912,-0.8993,-0.898,-0.8939,-0.8719,-0.8713,-0.8911,-0.8904,-0.8898,-0.8895,0,0,0,0,0,0,0,-0.9323,-0.9299,-0.9055,-0.9142,-0.9144,-0.9171,-0.9159,-0.9016,-0.9014,-0.9115,-0.9123,-0.9107,-0.8996,-0.8951,-0.8937,-0.8711,-0.8912,-0.89,-0.8893,-0.8888,-0.8298,-0.829,0,0,0,0,0,0,-0.933,-0.9306,-0.9059,-0.9051,-0.9251,-0.9159,-0.9146,-0.9082,-0.9017,-0.9014,-0.9101,-0.9113,-0.8969,-0.8951,-0.8932,-0.8662,-0.8898,-0.8887,-0.8879,-0.8306,-0.8296,-0.8287,0,0,0,0,0,0,-0.9336,-0.9306,-0.9064,-0.9181,-0.9153,-0.9145,-0.9072,-0.9075,-0.9031,-0.9006,-0.9006,-0.9056,-0.8974,-0.895,-0.8777,-0.8659,-0.8881,-0.887,-0.8316,-0.8303,-0.8292,-0.8122,0,0,0,0,0,0,-0.9346,-0.9308,-0.9225,-0.9179,-0.9146,-0.8913,-0.9065,-0.9067,-0.901,-0.9025,-0.8964,-0.8961,-0.8978,-0.8795,-0.8764,-0.8646,-0.886,-0.8326,-0.831,-0.8296,-0.8138,-0.8106,-0.8078,0,0,0,0,0,-0.9357,-0.918,-0.922,-0.9189,-0.9042,-0.8907,-0.8887,-0.8914,-0.9,-0.8915,-0.8899,-0.8963,-0.8678,-0.8776,-0.8743,-0.8619,-0.8333,-0.8315,-0.8297,-0.8152,-0.8112,-0.8079,0,0,0,0,0,0,-0.9209,-0.9175,-0.9219,-0.9022,-0.8967,-0.8928,-0.882,-0.8871,-0.8787,-0.8804,-0.8837,-0.8822,-0.8639,-0.8612,-0.8722,-0.8397,-0.8519,-0.8493,-0.842,-0.8382,-0.8353,-0.8361,-0.8849,0,0,0,0,0,-0.9154,-0.905,-0.9025,-0.8854,-0.8824,-0.8827,-0.8769,-0.8794,-0.8737,-0.8712,-0.8684,-0.8623,-0.852,-0.845,-0.8354,-0.8137,-0.8123,-0.8035,-0.8005,-0.798,-0.7956,-0.7836,-0.7795,-0.8227,-0.8227,-0.8228,0,0,-0.9038,-0.9007,-0.8938,-0.8823,-0.8783,-0.8671,-0.8806,-0.8682,-0.8598,-0.8693,-0.8527,-0.8505,-0.8438,-0.8241,-0.8153,-0.8213,-0.7834,-0.7957,-0.7938,-0.7926,-0.7813,-0.7772,-0.7735,-0.8215,-0.8217,-0.8219,0,0,-0.8769,-0.8737,-0.8589,-0.8547,-0.8487,-0.849,-0.8454,-0.8408,-0.8397,-0.8233,-0.8301,-0.8201,-0.8023,-0.7972,-0.7922,-0.7635,-0.7689,-0.7603,-0.7443,-0.7326,-0.7292,-0.7262,-0.7155,-0.7117,-0.758,-0.7579,-0.7579,0,-0.8631,-0.8468,-0.8506,-0.8377,-0.8323,-0.8408,-0.8257,-0.8213,-0.8122,-0.8081,-0.8152,-0.793,-0.7891,-0.7682,-0.7612,-0.7571,-0.7528,-0.7608,-0.7295,-0.7265,-0.7237,-0.7136,-0.7096,-0.7569,-0.757,-0.7571,-0.7572,0,-0.83,-0.8185,-0.8073,-0.7987,-0.7921,-0.7781,-0.7794,-0.7722,-0.7754,-0.7748,-0.7578,-0.7536,-0.7432,-0.7385,-0.7413,-0.7179,-0.7218,-0.7291,-0.7413,-0.7185,-0.709,-0.7052,-0.7554,-0.7558,-0.7561,-0.7563,0,0,-0.7929,-0.7868,-0.7825,-0.7786,-0.7726,-0.7637,-0.75,-0.7402,-0.7337,-0.7273,-0.7156,-0.7004,-0.7072,-0.7016,-0.7039,-0.6937,-0.6707,-0.7022,-0.7021,-0.6961,-0.6442,-0.6384,-0.6339,-0.6745,-0.6738,-0.6733,-0.6446,0,-0.7655,-0.7421,-0.7451,-0.7225,-0.7118,-0.7198,-0.7079,-0.7027,-0.7018,-0.6924,-0.6914,-0.6805,-0.6904,-0.687,-0.6773,-0.6756,-0.6603,-0.6778,-0.6632,-0.6626,-0.6641,-0.629,-0.6228,-0.596,-0.641,-0.6403,-0.6399,0,-0.7303,-0.7228,-0.6991,-0.6947,-0.6904,-0.6796,-0.6707,-0.6618,-0.656,-0.6561,-0.6499,-0.6541,-0.64,-0.653,-0.6334,-0.6453,-0.6395,-0.6378,-0.6368,-0.6351,-0.6495,-0.6259,-0.5875,-0.5833,-0.6342,-0.6346,-0.635,0,-0.7051,-0.6891,-0.6729,-0.6694,-0.6639,-0.6561,-0.6534,-0.6484,-0.6423,-0.6345,-0.6304,-0.621,-0.6157,-0.6081,-0.6095,-0.6189,-0.5894,-0.6025,-0.5886,-0.5885,-0.5816,-0.5819,-0.5412,-0.5787,-0.5787,-0.5788,-0.5789,0,-0.6738,-0.6589,-0.6615,-0.6514,-0.6349,-0.6385,-0.6219,-0.6202,-0.6157,-0.6051,-0.6116,-0.6015,-0.6042,-0.5941,-0.5952,-0.5786,-0.5762,-0.5756,-0.5759,-0.5747,-0.5747,-0.5706,-0.5723,-0.5778,-0.578,-0.5782,-0.5784,0,-0.6426,-0.6439,-0.6266,-0.623,-0.6217,-0.6096,-0.6064,-0.5967,-0.5966,-0.5832,-0.5802,-0.5798,-0.5683,-0.5691,-0.556,-0.5567,-0.5361,-0.5389,-0.538,-0.5385,-0.5244,-0.5255,-0.4792,-0.4732,-0.515,-0.5146,-0.5142,0,-0.6224,-0.6111,-0.6064,-0.6,-0.5968,-0.5864,-0.5803,-0.5834,-0.5767,-0.5693,-0.5604,-0.5496,-0.541,-0.5222,-0.5204,-0.5104,-0.5127,-0.4972,-0.5112,-0.5102,-0.5119,-0.5123,-0.511,-0.4942,-0.4938,-0.4934,-0.4931,0,-0.5861,-0.5873,-0.5784,-0.5695,-0.5621,-0.5553,-0.549,-0.5433,-0.5458,-0.5379,-0.5264,-0.5198,-0.5066,-0.4956,-0.4861,-0.483,-0.4881,-0.4888,-0.485,-0.4833,-0.4831,-0.4826,-0.53,-0.4897,-0.49,-0.4903,-0.4905,-0.4906,-0.5594,-0.5497,-0.5449,-0.5347,-0.5304,-0.5245,-0.5152,-0.5141,-0.5046,-0.4943,-0.4968,-0.4836,-0.478,-0.4659,-0.4619,-0.4514,-0.4569,-0.4515,-0.45,-0.4485,-0.4466,-0.4853,-0.4498,-0.4499,-0.45,-0.45,-0.4501,0,-0.5231,-0.5205,-0.5111,-0.5023,-0.4942,-0.5005,-0.4939,-0.4866,-0.4751,-0.4696,-0.4612,-0.4478,-0.4372,-0.4348,-0.4245,-0.4166,-0.4187,-0.4137,-0.4141,-0.4132,-0.4425,-0.4467,-0.4122,-0.4122,-0.4122,-0.4122,-0.4122,-0.4122,-0.5032,-0.4871,-0.4877,-0.4694,-0.4668,-0.4543,-0.4499,-0.4444,-0.44,-0.4249,-0.4163,-0.415,-0.4106,-0.4001,-0.3905,-0.3901,-0.3857,-0.3797,-0.3801,-0.4074,-0.4112,-0.4148,-0.4186,-0.3789,-0.3788,-0.3516,-0.3513,-0.3511]}]]